This is the latest recevied weather packets stored in our database for station/object NR6G-12. If no packets are shown the sender has not sent any weather packets the latest 10 day(s).
| Time | Temp. | Humidity | Pressure | Rain* | Wind** | Luminosity | Snow |
|---|---|---|---|---|---|---|---|
| 1777706460 | 16.11° C | 57% | 1016.7 hPa | 0 mm | - | - | - |
| 1777706100 | 16.11° C | 61% | 1016.7 hPa | 0 mm | - | - | - |
| 1777705740 | 16.11° C | 61% | 1016.6 hPa | 0 mm | - | - | - |
| 1777705380 | 16.11° C | 61% | 1016.7 hPa | 0 mm | - | - | - |
| 1777705020 | 16.11° C | 58% | 1016.7 hPa | 0 mm | - | - | - |
| 1777704660 | 16.11° C | 57% | 1016.7 hPa | 0 mm | - | - | - |
| 1777703940 | 16.11° C | 57% | 1016.7 hPa | 0 mm | - | - | - |
| 1777703580 | 16.11° C | 56% | 1016.7 hPa | 0 mm | - | - | - |
| 1777703220 | 16.11° C | 56% | 1016.7 hPa | 0 mm | - | - | - |
| 1777702860 | 16.11° C | 59% | 1016.6 hPa | 0 mm | - | - | - |
| 1777702500 | 16.11° C | 62% | 1016.6 hPa | 0 mm | - | - | - |
| 1777702140 | 16.11° C | 62% | 1016.6 hPa | 0 mm | - | - | - |
| 1777701780 | 16.11° C | 63% | 1016.7 hPa | 0 mm | - | - | - |
| 1777701420 | 16.11° C | 63% | 1016.7 hPa | 0 mm | - | - | - |
| 1777701060 | 16.11° C | 64% | 1016.7 hPa | 0 mm | - | - | - |
| 1777700700 | 16.11° C | 63% | 1016.8 hPa | 0 mm | - | - | - |
| 1777700340 | 16.11° C | 63% | 1016.8 hPa | 0 mm | - | - | - |
| 1777699980 | 16.11° C | 62% | 1016.8 hPa | 0 mm | - | - | - |
| 1777699620 | 16.11° C | 63% | 1016.7 hPa | 0 mm | - | - | - |
| 1777699260 | 15.56° C | 63% | 1016.7 hPa | 0 mm | - | - | - |
| 1777698900 | 15.56° C | 64% | 1016.7 hPa | 0 mm | - | - | - |
| 1777698540 | 15.56° C | 64% | 1016.7 hPa | 0 mm | - | - | - |
| 1777698180 | 15.56° C | 64% | 1016.6 hPa | 0 mm | - | - | - |
| 1777697820 | 15.56° C | 65% | 1016.7 hPa | 0 mm | - | - | - |
| 1777697460 | 15.56° C | 65% | 1015.8 hPa | 0 mm | - | - | - |
* Rain latest hour (hover to see other rain measurements)
** Current wind speed in m/s (hover to see current wind gust speed)